FFT1042 KBNA-KATL

Flight info

Callsign FFT1042
Flight time 0h 39m
Altitude 29000
Route TIPPN4 DENST CHPPR CHPPR1
Aircraft A321/M-SDE3FGHIRWY/LB1

Departure

Time 2026-05-07 00:06
Airport Nashville International Airport (KBNA)

Arrival

Time 2026-05-07 00:45
Airport Hartsfield Jackson Atlanta International Airport (KATL)
Time Latitude Longitude Altitude Speed Heading
2026-05-06 23:32 36.13404 -86.66971 569 ft 0 kts 104°
2026-05-06 23:44 36.13405 -86.66978 569 ft 4 kts 105°
2026-05-06 23:45 36.13413 -86.67010 571 ft 4 kts 110°
2026-05-06 23:45 36.13424 -86.67041 572 ft 4 kts 119°
2026-05-06 23:45 36.13439 -86.67067 571 ft 4 kts 143°
2026-05-06 23:45 36.13458 -86.67077 571 ft 2 kts 197°
2026-05-06 23:46 36.13463 -86.67075 572 ft 0 kts 197°
2026-05-06 23:47 36.13435 -86.67085 572 ft 8 kts 197°
2026-05-06 23:48 36.13390 -86.67116 573 ft 7 kts 239°
2026-05-06 23:48 36.13388 -86.67170 575 ft 8 kts 285°
2026-05-06 23:48 36.13413 -86.67278 568 ft 15 kts 281°
2026-05-06 23:48 36.13444 -86.67410 572 ft 17 kts 288°
2026-05-06 23:49 36.13480 -86.67549 572 ft 16 kts 288°
2026-05-06 23:49 36.13507 -86.67654 574 ft 10 kts 287°
2026-05-06 23:49 36.13523 -86.67718 574 ft 6 kts 287°
2026-05-06 23:49 36.13527 -86.67751 578 ft 2 kts 251°
2026-05-06 23:50 36.13510 -86.67772 576 ft 9 kts 218°
2026-05-06 23:50 36.13334 -86.67847 577 ft 15 kts 197°
2026-05-06 23:50 36.13191 -86.67903 575 ft 25 kts 197°
2026-05-06 23:51 36.13031 -86.67966 576 ft 23 kts 198°
2026-05-06 23:51 36.12883 -86.68025 577 ft 21 kts 197°
2026-05-06 23:51 36.12749 -86.68075 579 ft 20 kts 196°
2026-05-06 23:51 36.12612 -86.68125 576 ft 21 kts 196°
2026-05-06 23:52 36.12478 -86.68172 574 ft 20 kts 196°
2026-05-06 23:52 36.12347 -86.68221 573 ft 20 kts 197°
2026-05-06 23:52 36.12221 -86.68265 580 ft 18 kts 195°
2026-05-06 23:52 36.12097 -86.68309 577 ft 23 kts 196°
2026-05-06 23:53 36.11943 -86.68364 578 ft 22 kts 196°
2026-05-06 23:53 36.11812 -86.68410 582 ft 17 kts 196°
2026-05-06 23:53 36.11738 -86.68460 582 ft 0 kts 259°
2026-05-07 00:04 36.11737 -86.68479 600 ft 6 kts 269°
2026-05-07 00:05 36.11752 -86.68546 579 ft 10 kts 290°
2026-05-07 00:05 36.11784 -86.68625 579 ft 11 kts 319°
2026-05-07 00:05 36.11862 -86.68612 577 ft 17 kts 19°
2026-05-07 00:05 36.12176 -86.68487 576 ft 88 kts 17°
2026-05-07 00:06 36.12946 -86.68189 579 ft 141 kts 17°
2026-05-07 00:06 36.13991 -86.67769 791 ft 163 kts 18°
2026-05-07 00:06 36.15056 -86.67322 1356 ft 165 kts 18°
2026-05-07 00:06 36.15783 -86.67018 1693 ft 168 kts 19°
2026-05-07 00:07 36.17268 -86.66446 2378 ft 171 kts 18°
2026-05-07 00:07 36.18399 -86.65952 2886 ft 174 kts 20°
2026-05-07 00:07 36.19407 -86.65008 3064 ft 197 kts 58°
2026-05-07 00:07 36.19676 -86.63897 3157 ft 213 kts 85°
2026-05-07 00:08 36.19182 -86.62103 3281 ft 238 kts 129°
2026-05-07 00:08 36.17749 -86.60888 3556 ft 263 kts 158°
2026-05-07 00:08 36.15974 -86.60187 4260 ft 271 kts 168°
2026-05-07 00:08 36.14120 -86.59677 5093 ft 274 kts 172°
2026-05-07 00:09 36.12228 -86.59197 5876 ft 280 kts 173°
2026-05-07 00:09 36.10301 -86.58682 6624 ft 287 kts 174°
2026-05-07 00:09 36.08368 -86.58126 7390 ft 290 kts 173°
2026-05-07 00:09 36.06408 -86.57523 8257 ft 290 kts 172°
2026-05-07 00:10 36.04450 -86.56895 9107 ft 291 kts 172°
2026-05-07 00:10 36.02483 -86.56248 9935 ft 293 kts 171°
2026-05-07 00:10 36.00472 -86.55587 10385 ft 308 kts 172°
2026-05-07 00:10 35.98315 -86.54885 10560 ft 331 kts 172°
2026-05-07 00:11 35.96043 -86.54139 11045 ft 342 kts 172°
2026-05-07 00:11 35.93729 -86.53369 11717 ft 346 kts 172°
2026-05-07 00:11 35.91425 -86.52598 12420 ft 349 kts 173°
2026-05-07 00:11 35.89056 -86.51804 13130 ft 352 kts 174°
2026-05-07 00:12 35.86686 -86.51012 13846 ft 354 kts 174°
2026-05-07 00:12 35.84295 -86.50221 14517 ft 357 kts 175°
2026-05-07 00:12 35.81866 -86.49422 15133 ft 361 kts 176°
2026-05-07 00:12 35.79430 -86.48625 15729 ft 364 kts 176°
2026-05-07 00:13 35.76962 -86.47821 16332 ft 368 kts 177°
2026-05-07 00:13 35.74505 -86.47016 16933 ft 372 kts 177°
2026-05-07 00:13 35.71998 -86.46196 17526 ft 374 kts 179°
2026-05-07 00:13 35.69464 -86.45593 18087 ft 371 kts 184°
2026-05-07 00:14 35.66908 -86.45059 18619 ft 374 kts 184°
2026-05-07 00:14 35.64328 -86.44526 19122 ft 377 kts 184°
2026-05-07 00:14 35.61726 -86.43992 19618 ft 380 kts 184°
2026-05-07 00:14 35.59101 -86.43455 20114 ft 383 kts 183°
2026-05-07 00:15 35.56454 -86.42911 20599 ft 386 kts 183°
2026-05-07 00:15 35.53791 -86.42361 21080 ft 390 kts 183°
2026-05-07 00:15 35.51101 -86.41809 21564 ft 393 kts 182°
2026-05-07 00:15 35.48432 -86.41261 22033 ft 396 kts 182°
2026-05-07 00:16 35.45697 -86.40704 22499 ft 399 kts 182°
2026-05-07 00:16 35.42944 -86.40142 22922 ft 403 kts 181°
2026-05-07 00:16 35.40176 -86.39248 23371 ft 421 kts 171°
2026-05-07 00:16 35.37475 -86.37663 23776 ft 439 kts 159°
2026-05-07 00:17 35.34981 -86.35382 24154 ft 457 kts 148°
2026-05-07 00:17 35.32602 -86.32779 24529 ft 459 kts 148°
2026-05-07 00:17 35.30207 -86.30170 24918 ft 461 kts 148°
2026-05-07 00:17 35.27802 -86.27562 25296 ft 463 kts 149°
2026-05-07 00:18 35.25378 -86.24940 25700 ft 465 kts 149°
2026-05-07 00:18 35.22949 -86.22315 26069 ft 467 kts 149°
2026-05-07 00:18 35.20538 -86.19712 26425 ft 469 kts 149°
2026-05-07 00:18 35.18078 -86.17061 26752 ft 472 kts 149°
2026-05-07 00:19 35.15610 -86.14407 27140 ft 473 kts 149°
2026-05-07 00:19 35.13137 -86.11754 27461 ft 475 kts 149°
2026-05-07 00:19 35.10650 -86.09082 27819 ft 477 kts 149°
2026-05-07 00:19 35.08156 -86.06399 28155 ft 479 kts 149°
2026-05-07 00:20 35.05648 -86.03704 28488 ft 480 kts 149°
2026-05-07 00:20 35.03133 -86.01006 28790 ft 483 kts 149°
2026-05-07 00:20 35.00609 -85.98302 28959 ft 482 kts 149°
2026-05-07 00:20 34.98109 -85.95614 28983 ft 479 kts 149°
2026-05-07 00:21 34.93000 -85.90173 28975 ft 496 kts 149°
2026-05-07 00:21 34.87738 -85.84576 28964 ft 513 kts 147°
2026-05-07 00:22 34.82313 -85.78786 28956 ft 521 kts 147°
2026-05-07 00:22 34.76868 -85.72950 28950 ft 522 kts 146°
2026-05-07 00:23 34.74201 -85.69937 28513 ft 518 kts 144°
2026-05-07 00:23 34.71733 -85.66932 28126 ft 502 kts 143°
2026-05-07 00:23 34.69329 -85.63879 27563 ft 497 kts 142°
2026-05-07 00:23 34.66958 -85.60830 26965 ft 492 kts 142°
2026-05-07 00:24 34.64602 -85.57827 26335 ft 488 kts 142°
2026-05-07 00:24 34.62251 -85.54884 25935 ft 481 kts 143°
2026-05-07 00:24 34.59923 -85.52014 25534 ft 473 kts 143°
2026-05-07 00:24 34.57612 -85.49201 25049 ft 468 kts 144°
2026-05-07 00:25 34.55335 -85.46449 24549 ft 464 kts 144°
2026-05-07 00:25 34.53052 -85.43699 24018 ft 461 kts 144°
2026-05-07 00:25 34.50780 -85.40959 23458 ft 459 kts 143°
2026-05-07 00:25 34.48530 -85.38229 22819 ft 456 kts 143°
2026-05-07 00:26 34.46294 -85.35502 22262 ft 452 kts 143°
2026-05-07 00:26 34.44114 -85.32844 21727 ft 448 kts 143°
2026-05-07 00:26 34.41926 -85.30182 21256 ft 443 kts 143°
2026-05-07 00:26 34.39752 -85.27544 20726 ft 440 kts 143°
2026-05-07 00:27 34.37600 -85.24937 20181 ft 436 kts 142°
2026-05-07 00:27 34.35460 -85.22338 19639 ft 434 kts 142°
2026-05-07 00:27 34.33336 -85.19759 19127 ft 430 kts 142°
2026-05-07 00:27 34.31227 -85.17203 18640 ft 427 kts 142°
2026-05-07 00:28 34.29133 -85.14660 18151 ft 424 kts 142°
2026-05-07 00:28 34.27059 -85.12142 17634 ft 421 kts 141°
2026-05-07 00:28 34.25002 -85.09648 17161 ft 416 kts 141°
2026-05-07 00:28 34.22963 -85.07188 16698 ft 412 kts 141°
2026-05-07 00:29 34.20968 -85.04791 16253 ft 407 kts 141°
2026-05-07 00:29 34.18964 -85.02383 15816 ft 403 kts 141°
2026-05-07 00:30 34.12973 -84.95538 14530 ft 385 kts 148°
2026-05-07 00:30 34.10872 -84.93546 14092 ft 381 kts 148°
2026-05-07 00:30 34.08796 -84.91582 13684 ft 377 kts 148°
2026-05-07 00:30 34.06739 -84.89631 13216 ft 373 kts 148°
2026-05-07 00:31 34.04733 -84.87738 12752 ft 370 kts 148°
2026-05-07 00:31 34.02715 -84.85835 12297 ft 366 kts 148°
2026-05-07 00:31 34.00726 -84.83956 12018 ft 358 kts 148°
2026-05-07 00:31 33.98811 -84.82135 11983 ft 345 kts 148°
2026-05-07 00:32 33.96936 -84.80352 11993 ft 342 kts 148°
2026-05-07 00:32 33.95060 -84.78579 11992 ft 342 kts 148°
2026-05-07 00:32 33.93178 -84.76818 11989 ft 342 kts 148°
2026-05-07 00:32 33.91299 -84.75060 11988 ft 342 kts 148°
2026-05-07 00:33 33.89422 -84.73297 12002 ft 342 kts 148°
2026-05-07 00:33 33.87576 -84.71560 11999 ft 329 kts 148°
2026-05-07 00:33 33.85809 -84.69887 11974 ft 319 kts 148°
2026-05-07 00:33 33.84071 -84.68249 11990 ft 313 kts 149°
2026-05-07 00:34 33.82419 -84.66694 11979 ft 297 kts 149°
2026-05-07 00:34 33.80837 -84.65203 11990 ft 281 kts 150°
2026-05-07 00:34 33.79337 -84.63788 11995 ft 268 kts 150°
2026-05-07 00:34 33.77877 -84.62420 11999 ft 265 kts 151°
2026-05-07 00:35 33.76419 -84.61065 12001 ft 264 kts 150°
2026-05-07 00:35 33.75043 -84.59565 12000 ft 272 kts 137°
2026-05-07 00:35 33.73958 -84.57633 11570 ft 290 kts 121°
2026-05-07 00:35 33.73373 -84.55326 11343 ft 290 kts 102°
2026-05-07 00:36 33.73289 -84.52914 11012 ft 281 kts 92°
2026-05-07 00:36 33.73299 -84.50558 10350 ft 281 kts 92°
2026-05-07 00:36 33.73303 -84.48212 9736 ft 279 kts 93°
2026-05-07 00:36 33.73299 -84.45919 9097 ft 277 kts 93°
2026-05-07 00:37 33.73298 -84.43622 8501 ft 273 kts 93°
2026-05-07 00:37 33.73302 -84.41354 7905 ft 269 kts 93°
2026-05-07 00:37 33.73305 -84.39122 7489 ft 265 kts 92°
2026-05-07 00:37 33.73303 -84.36904 7335 ft 265 kts 93°
2026-05-07 00:38 33.73300 -84.34681 7015 ft 265 kts 93°
2026-05-07 00:38 33.73297 -84.32476 6640 ft 263 kts 93°
2026-05-07 00:38 33.73298 -84.30285 6263 ft 261 kts 93°
2026-05-07 00:38 33.73300 -84.28108 5855 ft 257 kts 93°
2026-05-07 00:39 33.73306 -84.26006 5433 ft 253 kts 94°
2026-05-07 00:39 33.73311 -84.23908 5013 ft 249 kts 94°
2026-05-07 00:39 33.73314 -84.21831 4625 ft 247 kts 95°
2026-05-07 00:39 33.73005 -84.19860 4188 ft 235 kts 121°
2026-05-07 00:40 33.71950 -84.18494 3970 ft 218 kts 157°
2026-05-07 00:40 33.70535 -84.17949 3980 ft 212 kts 173°
2026-05-07 00:40 33.69086 -84.17630 3972 ft 210 kts 180°
2026-05-07 00:40 33.67725 -84.18058 3973 ft 203 kts 214°
2026-05-07 00:41 33.66839 -84.19356 3974 ft 202 kts 240°
2026-05-07 00:41 33.66257 -84.20890 3762 ft 201 kts 244°
2026-05-07 00:41 33.65710 -84.22439 3495 ft 204 kts 244°
2026-05-07 00:41 33.65250 -84.24019 3225 ft 205 kts 259°
2026-05-07 00:42 33.65215 -84.25735 3037 ft 205 kts 264°
2026-05-07 00:42 33.65061 -84.27341 3014 ft 183 kts 259°
2026-05-07 00:42 33.64984 -84.28842 2879 ft 176 kts 263°
2026-05-07 00:42 33.64960 -84.30322 2692 ft 177 kts 264°
2026-05-07 00:43 33.64954 -84.31793 2466 ft 172 kts 265°
2026-05-07 00:43 33.64956 -84.33124 2249 ft 148 kts 265°
2026-05-07 00:43 33.64955 -84.34306 2070 ft 137 kts 265°
2026-05-07 00:43 33.64954 -84.35436 1894 ft 134 kts 265°
2026-05-07 00:44 33.64954 -84.36564 1730 ft 137 kts 266°
2026-05-07 00:44 33.64953 -84.37700 1568 ft 137 kts 269°
2026-05-07 00:44 33.64953 -84.38854 1390 ft 140 kts 267°
2026-05-07 00:44 33.64950 -84.39999 1204 ft 138 kts 267°
2026-05-07 00:45 33.64953 -84.41145 1029 ft 137 kts 267°
2026-05-07 00:45 33.64943 -84.42166 1007 ft 92 kts 270°
2026-05-07 00:45 33.64948 -84.42631 1007 ft 38 kts 270°
2026-05-07 00:45 33.64949 -84.42937 1006 ft 36 kts 270°
2026-05-07 00:46 33.64934 -84.43144 1007 ft 19 kts 257°
2026-05-07 00:46 33.64882 -84.43284 1007 ft 18 kts 235°
2026-05-07 00:46 33.64862 -84.43311 1007 ft 0 kts 214°
2026-05-07 00:47 33.64857 -84.43316 1007 ft 3 kts 217°
2026-05-07 00:47 33.64843 -84.43358 1006 ft 11 kts 263°
2026-05-07 00:47 33.64843 -84.43461 1006 ft 12 kts 270°
2026-05-07 00:48 33.64805 -84.43542 1007 ft 12 kts 210°
2026-05-07 00:48 33.64735 -84.43588 1007 ft 12 kts 210°
2026-05-07 00:48 33.64663 -84.43639 1006 ft 12 kts 210°
2026-05-07 00:48 33.64587 -84.43669 1006 ft 11 kts 171°
2026-05-07 00:49 33.64543 -84.43607 1007 ft 10 kts 95°
2026-05-07 00:49 33.64544 -84.43528 1007 ft 10 kts 90°
2026-05-07 00:49 33.64537 -84.43452 1007 ft 8 kts 117°
2026-05-07 00:49 33.64487 -84.43426 1006 ft 8 kts 172°
2026-05-07 00:50 33.64433 -84.43420 1006 ft 8 kts 162°
2026-05-07 00:50 33.64372 -84.43395 1006 ft 12 kts 169°
2026-05-07 00:50 33.64272 -84.43392 1006 ft 14 kts 180°
2026-05-07 00:50 33.64180 -84.43392 1006 ft 12 kts 180°
2026-05-07 00:51 33.64100 -84.43392 1006 ft 8 kts 179°
2026-05-07 00:51 33.64063 -84.43383 1006 ft 4 kts 142°
2026-05-07 00:51 33.64059 -84.43360 1006 ft 2 kts 100°
2026-05-07 00:51 33.64058 -84.43344 1006 ft 2 kts 94°
2026-05-07 00:52 33.64057 -84.43329 1006 ft 1 kts 92°
2026-05-07 00:52 33.64057 -84.43326 1006 ft 0 kts 92°